GEFSSGP_prec_meanprecacc_168.txt.gz
Total_Precipitation_Accumulation
0.02 0.08 0.28 0.54 1.00 1.43 1.21 0.60 0.41 0.29 0.29 0.40 0.39 0.30 0.32 0.41 0.55 0.88 0.40 0.28 0.13 0.05 0.03 0.08 0.12 0.09 0.10 0.13 0.14 0.16 0.14 0.14 0.13 0.12 0.10 0.09 0.09 0.10 0.09 0.10 0.13 0.15 0.17 0.19 0.20 0.18 0.17 0.16 0.15
0.04 0.13 0.35 0.73 1.35 1.69 1.05 0.46 0.32 0.27 0.34 0.42 0.34 0.27 0.30 0.28 0.25 0.20 0.19 0.29 0.13 0.05 0.03 0.03 0.09 0.09 0.08 0.11 0.12 0.15 0.15 0.16 0.16 0.14 0.12 0.12 0.12 0.14 0.16 0.16 0.15 0.16 0.18 0.17 0.17 0.16 0.14 0.13 0.14
0.06 0.15 0.41 0.75 1.04 1.14 0.58 0.27 0.23 0.25 0.38 0.41 0.32 0.29 0.31 0.34 0.31 0.23 0.16 0.17 0.12 0.05 0.04 0.04 0.06 0.08 0.08 0.09 0.12 0.13 0.14 0.16 0.18 0.16 0.13 0.14 0.16 0.19 0.20 0.20 0.18 0.20 0.19 0.17 0.18 0.15 0.15 0.14 0.15
0.10 0.22 0.42 0.60 0.70 0.59 0.34 0.21 0.21 0.25 0.37 0.33 0.28 0.38 0.41 0.45 0.28 0.22 0.19 0.14 0.11 0.07 0.06 0.06 0.08 0.08 0.08 0.09 0.11 0.13 0.16 0.17 0.17 0.14 0.15 0.15 0.19 0.21 0.21 0.20 0.20 0.20 0.17 0.17 0.16 0.15 0.16 0.16 0.18
0.12 0.28 0.49 0.60 0.51 0.35 0.25 0.22 0.23 0.24 0.23 0.31 0.35 0.53 0.54 0.47 0.30 0.37 0.37 0.23 0.11 0.10 0.10 0.11 0.11 0.10 0.11 0.11 0.12 0.14 0.15 0.16 0.17 0.15 0.16 0.17 0.21 0.21 0.20 0.19 0.20 0.19 0.16 0.17 0.18 0.19 0.16 0.18 0.21
0.13 0.27 0.38 0.41 0.31 0.21 0.23 0.22 0.20 0.20 0.26 0.36 0.46 0.48 0.57 0.48 0.41 0.59 0.54 0.39 0.21 0.15 0.18 0.19 0.19 0.18 0.15 0.14 0.13 0.15 0.17 0.17 0.18 0.19 0.19 0.19 0.22 0.23 0.22 0.21 0.21 0.20 0.17 0.17 0.20 0.22 0.21 0.21 0.24
0.12 0.20 0.25 0.21 0.18 0.17 0.18 0.17 0.18 0.20 0.33 0.42 0.48 0.58 0.73 0.76 0.60 0.59 0.66 0.64 0.39 0.38 0.47 0.39 0.27 0.23 0.23 0.22 0.21 0.20 0.22 0.24 0.23 0.23 0.21 0.22 0.23 0.24 0.25 0.27 0.27 0.26 0.24 0.24 0.22 0.20 0.24 0.26 0.29
0.06 0.11 0.12 0.10 0.09 0.12 0.11 0.14 0.17 0.20 0.28 0.44 0.55 0.71 0.99 0.91 0.76 0.73 0.80 0.93 0.67 0.56 0.57 0.52 0.38 0.33 0.26 0.22 0.25 0.27 0.28 0.29 0.27 0.25 0.26 0.26 0.25 0.27 0.32 0.32 0.39 0.39 0.40 0.43 0.40 0.31 0.31 0.37 0.40
0.04 0.09 0.08 0.05 0.05 0.07 0.07 0.10 0.14 0.19 0.27 0.35 0.57 0.76 0.79 0.72 0.89 0.94 1.09 1.28 1.22 0.99 0.86 0.74 0.48 0.38 0.35 0.30 0.28 0.35 0.36 0.35 0.35 0.37 0.36 0.42 0.50 0.56 0.70 0.63 0.73 0.69 0.71 0.71 0.69 0.63 0.62 0.66 0.55
0.03 0.05 0.05 0.03 0.03 0.05 0.05 0.08 0.13 0.29 0.45 0.71 0.96 0.93 0.73 0.73 1.04 1.23 1.40 1.64 1.66 1.50 1.31 1.06 0.77 0.60 0.53 0.44 0.46 0.51 0.51 0.61 0.61 0.76 0.82 0.99 1.18 1.15 0.90 1.02 1.24 1.29 1.28 1.22 1.22 1.34 1.20 1.02 0.88
0.02 0.02 0.02 0.03 0.03 0.03 0.04 0.07 0.10 0.22 0.65 1.15 1.39 1.32 1.13 1.00 1.24 1.59 1.90 2.19 1.97 1.68 1.51 1.37 1.15 0.92 0.73 0.72 0.70 0.77 0.89 1.18 1.07 1.01 1.14 1.46 1.36 1.13 1.02 1.16 1.45 1.73 1.73 1.65 1.76 1.91 1.56 1.63 1.80
0.00 0.01 0.01 0.01 0.02 0.02 0.03 0.05 0.14 0.24 0.64 0.91 1.14 1.25 1.29 1.29 1.37 1.59 1.90 2.17 2.37 2.25 2.00 1.78 1.62 1.39 1.29 1.19 1.06 0.96 1.01 1.14 1.13 1.25 1.19 1.50 1.60 1.47 1.41 1.54 1.64 1.85 2.08 2.42 2.33 2.46 2.34 2.26 2.13
0.00 0.00 0.01 0.01 0.01 0.02 0.02 0.08 0.17 0.28 0.55 0.61 0.69 0.85 1.15 1.39 1.71 2.00 2.16 2.50 2.61 2.69 2.46 2.31 2.16 2.05 1.99 1.80 1.58 1.26 1.30 1.26 1.29 1.47 1.48 1.60 1.85 1.92 1.99 1.95 1.87 1.79 2.15 2.57 2.78 2.51 2.79 2.81 2.41
0.00 0.00 0.00 0.01 0.02 0.03 0.04 0.09 0.19 0.34 0.49 0.55 0.62 0.82 1.10 1.44 1.72 2.14 2.43 2.83 2.83 2.85 2.96 3.04 2.90 2.76 2.72 2.49 2.28 2.01 1.81 1.85 1.80 1.82 1.94 2.08 2.27 2.41 2.44 2.29 2.20 2.00 2.03 2.33 2.56 2.57 2.79 2.68 2.53
0.00 0.01 0.04 0.04 0.04 0.06 0.12 0.20 0.37 0.50 0.56 0.74 0.84 1.06 1.24 1.56 1.90 2.01 2.19 2.44 2.75 3.01 3.45 3.71 3.74 3.62 3.56 3.42 3.08 2.69 2.48 2.48 2.59 2.62 2.66 2.60 2.67 2.87 2.74 2.48 2.18 2.08 2.15 2.28 2.29 2.33 2.42 2.29 2.21
0.01 0.03 0.10 0.11 0.07 0.08 0.14 0.40 0.55 0.59 0.72 0.93 0.98 1.20 1.50 1.60 1.94 2.07 2.09 2.27 2.82 3.30 3.86 4.17 4.30 4.48 4.35 4.25 3.88 3.39 3.10 2.98 2.93 2.98 2.97 2.87 2.87 2.76 2.68 2.34 2.01 2.06 2.17 2.17 2.16 2.05 2.14 2.17 2.23
0.02 0.06 0.12 0.19 0.11 0.12 0.19 0.49 0.60 0.64 0.85 1.00 1.16 1.18 1.35 1.58 2.01 2.27 2.37 2.50 2.94 3.58 4.27 4.66 5.11 5.36 5.23 4.88 4.32 3.85 3.70 3.51 3.29 3.24 3.13 2.95 2.73 2.55 2.59 2.28 2.12 2.05 2.05 1.96 1.85 2.03 2.16 2.17 2.21
0.03 0.05 0.12 0.22 0.15 0.14 0.26 0.47 0.68 0.77 0.92 1.10 1.17 1.16 1.30 1.58 1.80 2.12 2.39 2.78 3.14 3.68 4.44 5.03 5.54 5.70 5.40 4.84 4.38 4.19 4.02 3.67 3.37 3.04 2.78 2.51 2.36 2.20 2.28 2.04 1.95 2.03 2.07 1.90 1.91 2.08 2.11 1.93 2.01
0.03 0.05 0.14 0.22 0.14 0.16 0.29 0.46 0.68 0.85 0.99 1.06 1.25 1.25 1.43 1.69 1.84 2.20 2.54 2.97 3.40 3.91 4.60 5.16 5.51 5.45 5.20 4.82 4.40 4.09 3.61 3.26 2.94 2.59 2.38 2.15 1.90 1.79 1.97 1.78 1.86 1.87 1.82 1.67 1.62 1.70 1.71 1.52 1.78
0.05 0.08 0.17 0.21 0.14 0.15 0.30 0.50 0.78 0.87 0.85 0.89 1.12 1.23 1.30 1.49 1.78 2.09 2.59 2.89 3.21 3.67 4.15 4.53 4.47 4.14 4.00 3.92 3.77 3.48 3.45 3.31 3.05 2.80 2.56 2.17 1.95 1.78 1.61 1.65 1.56 1.57 1.64 1.48 1.38 1.51 1.51 1.31 1.54
0.06 0.08 0.14 0.19 0.22 0.23 0.33 0.66 0.90 0.93 0.84 0.80 0.84 0.95 1.05 1.17 1.39 1.71 2.25 2.54 2.70 3.07 3.35 3.40 3.26 3.03 3.03 3.06 2.96 2.99 3.17 3.20 3.08 2.87 2.59 2.31 2.14 1.99 1.83 1.65 1.48 1.44 1.36 1.34 1.31 1.39 1.41 1.32 1.27
0.09 0.06 0.07 0.10 0.19 0.42 0.47 0.83 1.09 1.21 1.14 0.93 0.83 0.93 0.98 1.05 1.09 1.37 1.71 1.88 2.09 2.27 2.42 2.45 2.46 2.40 2.39 2.43 2.32 2.18 2.23 2.37 2.52 2.73 2.73 2.69 2.49 2.23 1.97 1.78 1.54 1.32 1.21 1.29 1.10 1.15 1.33 1.39 1.19
0.06 0.05 0.06 0.09 0.15 0.30 0.42 0.65 1.06 1.32 1.46 1.13 0.90 0.83 0.77 0.89 1.08 1.22 1.29 1.40 1.52 1.55 1.71 1.77 2.00 2.26 2.33 2.30 2.37 2.23 1.96 1.88 1.88 1.98 2.09 2.11 2.11 1.99 1.75 1.62 1.51 1.26 1.10 1.10 1.09 1.21 1.22 1.23 1.12
0.06 0.10 0.16 0.24 0.37 0.60 0.57 0.62 0.96 1.14 1.25 1.00 0.84 0.82 0.67 0.66 0.81 0.95 1.08 1.14 1.17 1.18 1.35 1.55 1.83 2.17 2.34 2.36 2.30 2.22 2.06 1.97 1.82 1.72 1.67 1.59 1.64 1.62 1.52 1.43 1.37 1.21 1.11 1.11 1.07 1.13 1.17 1.22 1.23
0.08 0.15 0.48 0.82 1.15 1.18 0.68 0.67 0.89 0.88 0.83 0.86 0.73 0.68 0.70 0.59 0.58 0.60 0.72 0.82 0.81 0.82 0.92 1.18 1.41 1.62 1.81 1.95 1.94 1.83 1.87 1.93 1.76 1.55 1.41 1.31 1.26 1.24 1.26 1.32 1.31 1.22 1.18 1.21 1.27 1.24 1.17 1.20 1.26
0.08 0.12 0.36 0.60 0.77 0.89 0.72 1.06 1.14 0.84 0.72 0.61 0.51 0.48 0.52 0.44 0.39 0.37 0.42 0.53 0.62 0.62 0.65 0.78 1.05 1.22 1.40 1.53 1.64 1.72 1.84 1.91 1.80 1.83 1.60 1.39 1.22 1.15 1.18 1.31 1.32 1.22 1.17 1.13 1.27 1.24 1.24 1.29 1.29
0.09 0.08 0.13 0.21 0.35 0.60 0.85 1.07 1.02 0.82 0.81 0.61 0.42 0.36 0.36 0.32 0.28 0.28 0.33 0.37 0.40 0.45 0.52 0.58 0.72 0.91 1.12 1.31 1.47 1.53 1.50 1.49 1.53 1.60 1.58 1.42 1.37 1.24 1.31 1.35 1.40 1.38 1.35 1.34 1.38 1.31 1.36 1.50 1.50
0.10 0.09 0.10 0.16 0.29 0.46 0.75 1.11 1.17 1.01 0.89 0.72 0.54 0.36 0.29 0.29 0.28 0.27 0.27 0.29 0.29 0.32 0.44 0.55 0.61 0.75 1.08 1.38 1.51 1.38 1.32 1.21 1.29 1.32 1.35 1.40 1.39 1.36 1.37 1.35 1.37 1.42 1.42 1.39 1.45 1.44 1.50 1.65 1.66
0.14 0.11 0.11 0.14 0.17 0.30 0.64 0.85 0.73 0.76 0.71 0.63 0.54 0.40 0.34 0.31 0.30 0.29 0.24 0.23 0.28 0.28 0.38 0.56 0.67 0.82 1.10 1.40 1.56 1.50 1.33 1.27 1.31 1.23 1.18 1.28 1.33 1.34 1.35 1.29 1.27 1.24 1.28 1.43 1.56 1.53 1.58 1.63 1.68
0.14 0.14 0.14 0.20 0.19 0.22 0.35 0.56 0.43 0.50 0.60 0.58 0.41 0.31 0.26 0.21 0.24 0.23 0.17 0.18 0.21 0.24 0.35 0.66 0.96 1.31 1.47 1.70 1.92 1.87 1.52 1.32 1.24 1.08 1.02 1.11 1.26 1.33 1.33 1.27 1.23 1.20 1.30 1.48 1.57 1.65 1.81 1.90 1.83

GEFSSGP_prec_meanprecacc_174.txt.gz
Total_Precipitation_Accumulation
0.03 0.09 0.28 0.54 1.00 1.44 1.22 0.61 0.42 0.30 0.30 0.41 0.40 0.30 0.32 0.41 0.56 0.89 0.40 0.28 0.13 0.05 0.04 0.10 0.14 0.11 0.12 0.14 0.15 0.17 0.15 0.15 0.14 0.12 0.10 0.10 0.10 0.11 0.11 0.12 0.15 0.17 0.19 0.21 0.22 0.21 0.19 0.17 0.17
0.04 0.14 0.35 0.73 1.36 1.70 1.06 0.46 0.32 0.27 0.35 0.42 0.34 0.27 0.31 0.29 0.25 0.20 0.19 0.29 0.13 0.05 0.03 0.05 0.11 0.11 0.10 0.12 0.13 0.16 0.15 0.16 0.17 0.15 0.13 0.12 0.13 0.16 0.18 0.18 0.18 0.19 0.21 0.19 0.19 0.18 0.16 0.15 0.15
0.06 0.15 0.42 0.75 1.05 1.15 0.59 0.27 0.23 0.25 0.38 0.41 0.33 0.29 0.32 0.35 0.31 0.23 0.16 0.17 0.12 0.05 0.04 0.05 0.08 0.09 0.09 0.10 0.12 0.14 0.15 0.16 0.18 0.16 0.14 0.15 0.17 0.21 0.23 0.23 0.21 0.22 0.21 0.19 0.20 0.18 0.17 0.15 0.17
0.10 0.22 0.42 0.61 0.70 0.59 0.34 0.21 0.21 0.26 0.37 0.33 0.29 0.38 0.41 0.45 0.28 0.22 0.19 0.14 0.11 0.08 0.06 0.07 0.09 0.09 0.09 0.10 0.11 0.13 0.16 0.18 0.18 0.15 0.16 0.17 0.21 0.23 0.23 0.21 0.21 0.22 0.19 0.19 0.19 0.18 0.18 0.17 0.19
0.12 0.29 0.49 0.60 0.51 0.35 0.25 0.22 0.23 0.24 0.23 0.31 0.35 0.53 0.54 0.48 0.31 0.37 0.37 0.23 0.11 0.10 0.11 0.12 0.13 0.12 0.12 0.12 0.12 0.14 0.15 0.16 0.17 0.16 0.17 0.19 0.23 0.23 0.22 0.21 0.22 0.21 0.18 0.19 0.20 0.21 0.18 0.20 0.22
0.13 0.27 0.38 0.41 0.31 0.21 0.23 0.22 0.20 0.20 0.26 0.36 0.46 0.48 0.57 0.48 0.41 0.59 0.54 0.39 0.21 0.16 0.18 0.20 0.21 0.19 0.17 0.15 0.14 0.15 0.17 0.18 0.20 0.21 0.20 0.20 0.23 0.25 0.24 0.23 0.23 0.22 0.19 0.19 0.21 0.23 0.22 0.24 0.27
0.12 0.20 0.25 0.21 0.18 0.17 0.18 0.17 0.18 0.20 0.33 0.42 0.48 0.58 0.73 0.76 0.60 0.59 0.66 0.64 0.40 0.38 0.47 0.40 0.28 0.24 0.24 0.24 0.22 0.21 0.23 0.25 0.25 0.25 0.23 0.24 0.24 0.27 0.27 0.29 0.28 0.27 0.25 0.26 0.24 0.22 0.26 0.29 0.32
0.06 0.11 0.12 0.10 0.09 0.12 0.11 0.14 0.17 0.20 0.28 0.44 0.55 0.71 0.99 0.91 0.76 0.74 0.80 0.93 0.67 0.56 0.57 0.52 0.39 0.34 0.27 0.23 0.26 0.28 0.29 0.30 0.29 0.27 0.27 0.28 0.27 0.29 0.33 0.33 0.40 0.40 0.42 0.45 0.42 0.35 0.34 0.39 0.43
0.04 0.09 0.08 0.05 0.05 0.07 0.07 0.10 0.14 0.19 0.27 0.35 0.57 0.76 0.79 0.72 0.89 0.94 1.09 1.28 1.23 0.99 0.87 0.74 0.49 0.39 0.37 0.31 0.29 0.37 0.37 0.36 0.36 0.39 0.38 0.45 0.55 0.59 0.72 0.64 0.74 0.70 0.72 0.73 0.72 0.67 0.66 0.68 0.58
0.03 0.05 0.05 0.03 0.03 0.05 0.05 0.08 0.13 0.29 0.45 0.71 0.96 0.93 0.73 0.73 1.04 1.23 1.40 1.64 1.67 1.51 1.32 1.06 0.77 0.61 0.54 0.45 0.47 0.53 0.53 0.63 0.64 0.79 0.85 1.04 1.24 1.20 0.92 1.03 1.25 1.29 1.29 1.23 1.24 1.37 1.23 1.05 0.91
0.02 0.02 0.02 0.03 0.03 0.03 0.04 0.07 0.10 0.22 0.65 1.15 1.39 1.32 1.13 1.00 1.24 1.59 1.90 2.19 1.97 1.68 1.51 1.38 1.15 0.93 0.73 0.73 0.72 0.78 0.91 1.20 1.09 1.04 1.17 1.50 1.39 1.16 1.03 1.18 1.48 1.75 1.74 1.67 1.77 1.92 1.56 1.65 1.83
0.01 0.01 0.01 0.01 0.02 0.02 0.03 0.05 0.14 0.24 0.64 0.91 1.14 1.25 1.29 1.29 1.37 1.59 1.91 2.17 2.37 2.25 2.01 1.78 1.63 1.39 1.31 1.20 1.08 0.98 1.03 1.16 1.16 1.27 1.21 1.52 1.62 1.49 1.44 1.58 1.67 1.88 2.11 2.45 2.35 2.48 2.36 2.29 2.15
0.00 0.01 0.01 0.01 0.01 0.02 0.03 0.08 0.17 0.28 0.55 0.61 0.69 0.85 1.15 1.39 1.71 2.00 2.16 2.50 2.61 2.69 2.47 2.32 2.17 2.06 2.01 1.82 1.61 1.29 1.33 1.28 1.31 1.50 1.49 1.61 1.86 1.93 2.00 1.98 1.91 1.81 2.17 2.59 2.80 2.53 2.81 2.83 2.44
0.00 0.00 0.00 0.01 0.02 0.03 0.04 0.09 0.19 0.34 0.49 0.55 0.62 0.82 1.10 1.44 1.72 2.14 2.43 2.83 2.83 2.86 2.96 3.04 2.90 2.77 2.74 2.51 2.30 2.03 1.84 1.87 1.82 1.83 1.96 2.10 2.28 2.42 2.46 2.32 2.24 2.03 2.05 2.35 2.58 2.59 2.82 2.70 2.56
0.00 0.01 0.04 0.04 0.04 0.06 0.12 0.20 0.37 0.50 0.56 0.75 0.84 1.06 1.24 1.56 1.90 2.01 2.19 2.45 2.75 3.02 3.45 3.71 3.74 3.63 3.57 3.43 3.09 2.72 2.52 2.52 2.63 2.65 2.68 2.62 2.69 2.89 2.76 2.53 2.23 2.13 2.18 2.31 2.32 2.35 2.44 2.31 2.23
0.01 0.03 0.11 0.11 0.07 0.09 0.14 0.40 0.55 0.59 0.72 0.93 0.98 1.20 1.50 1.60 1.94 2.07 2.09 2.28 2.83 3.30 3.87 4.17 4.32 4.50 4.36 4.27 3.91 3.44 3.16 3.02 2.96 3.01 3.00 2.89 2.90 2.80 2.71 2.38 2.04 2.10 2.22 2.21 2.19 2.07 2.17 2.20 2.27
0.02 0.06 0.12 0.19 0.11 0.12 0.19 0.49 0.60 0.64 0.85 1.01 1.16 1.18 1.35 1.58 2.01 2.27 2.37 2.51 2.95 3.59 4.28 4.67 5.12 5.38 5.25 4.92 4.40 3.94 3.78 3.55 3.33 3.28 3.16 2.99 2.78 2.62 2.65 2.33 2.18 2.10 2.12 2.03 1.88 2.08 2.21 2.22 2.27
0.03 0.05 0.12 0.22 0.15 0.14 0.26 0.47 0.68 0.77 0.92 1.10 1.17 1.16 1.30 1.59 1.80 2.12 2.39 2.78 3.14 3.69 4.45 5.05 5.56 5.72 5.43 4.88 4.43 4.25 4.07 3.72 3.43 3.10 2.83 2.55 2.41 2.24 2.34 2.11 2.04 2.12 2.15 1.99 1.99 2.18 2.19 1.99 2.09
0.03 0.05 0.14 0.22 0.14 0.16 0.29 0.46 0.68 0.85 0.99 1.06 1.25 1.25 1.44 1.69 1.84 2.21 2.54 2.97 3.40 3.92 4.61 5.18 5.54 5.48 5.24 4.85 4.46 4.16 3.67 3.33 3.02 2.69 2.48 2.23 1.97 1.87 2.07 1.88 1.98 2.00 1.93 1.76 1.73 1.81 1.81 1.59 1.87
0.05 0.08 0.17 0.21 0.14 0.15 0.30 0.50 0.78 0.87 0.85 0.89 1.12 1.23 1.30 1.49 1.78 2.10 2.60 2.89 3.21 3.67 4.16 4.55 4.50 4.17 4.02 3.96 3.83 3.55 3.54 3.39 3.17 2.94 2.68 2.27 2.05 1.88 1.72 1.79 1.71 1.71 1.77 1.58 1.48 1.62 1.62 1.40 1.64
0.06 0.08 0.14 0.19 0.22 0.23 0.33 0.66 0.90 0.93 0.84 0.80 0.84 0.95 1.05 1.17 1.40 1.71 2.26 2.56 2.71 3.07 3.37 3.42 3.29 3.07 3.06 3.10 3.02 3.06 3.27 3.30 3.20 3.01 2.73 2.43 2.26 2.12 1.95 1.79 1.63 1.57 1.48 1.46 1.42 1.49 1.53 1.44 1.38
0.09 0.06 0.07 0.10 0.19 0.42 0.47 0.83 1.09 1.21 1.14 0.93 0.83 0.93 0.98 1.05 1.10 1.38 1.72 1.90 2.13 2.29 2.44 2.48 2.52 2.48 2.46 2.50 2.42 2.30 2.34 2.48 2.64 2.85 2.87 2.83 2.61 2.35 2.09 1.90 1.66 1.43 1.30 1.41 1.20 1.25 1.44 1.52 1.30
0.06 0.05 0.06 0.09 0.15 0.30 0.42 0.65 1.06 1.32 1.46 1.13 0.90 0.83 0.77 0.89 1.08 1.23 1.30 1.43 1.58 1.58 1.73 1.80 2.07 2.34 2.41 2.39 2.44 2.30 2.04 1.97 2.00 2.13 2.26 2.25 2.23 2.09 1.84 1.72 1.61 1.37 1.19 1.19 1.18 1.32 1.33 1.33 1.25
0.06 0.10 0.16 0.24 0.37 0.60 0.57 0.62 0.96 1.14 1.25 1.00 0.84 0.82 0.67 0.66 0.82 0.96 1.09 1.20 1.23 1.21 1.37 1.58 1.87 2.22 2.41 2.45 2.39 2.29 2.14 2.08 1.96 1.90 1.87 1.74 1.77 1.74 1.63 1.53 1.49 1.32 1.20 1.20 1.17 1.24 1.28 1.32 1.35
0.08 0.15 0.48 0.82 1.15 1.18 0.68 0.67 0.89 0.88 0.83 0.86 0.73 0.68 0.70 0.59 0.58 0.60 0.72 0.84 0.85 0.87 0.97 1.21 1.44 1.66 1.85 1.99 1.99 1.88 1.94 2.05 1.91 1.74 1.60 1.47 1.38 1.36 1.38 1.44 1.46 1.34 1.27 1.31 1.39 1.36 1.27 1.29 1.36
0.08 0.12 0.36 0.60 0.77 0.89 0.72 1.06 1.14 0.84 0.72 0.61 0.51 0.48 0.53 0.44 0.39 0.37 0.43 0.53 0.63 0.65 0.68 0.81 1.07 1.26 1.44 1.56 1.67 1.76 1.91 2.01 1.94 2.01 1.78 1.57 1.36 1.25 1.28 1.44 1.49 1.41 1.32 1.25 1.40 1.36 1.36 1.39 1.38
0.09 0.08 0.13 0.21 0.35 0.60 0.85 1.07 1.02 0.82 0.81 0.61 0.43 0.36 0.36 0.32 0.28 0.28 0.33 0.37 0.41 0.46 0.53 0.59 0.75 0.94 1.16 1.35 1.50 1.58 1.56 1.57 1.65 1.76 1.72 1.56 1.51 1.36 1.40 1.44 1.53 1.56 1.57 1.52 1.54 1.44 1.47 1.61 1.61
0.10 0.09 0.10 0.16 0.29 0.46 0.75 1.11 1.17 1.01 0.90 0.72 0.54 0.36 0.30 0.29 0.28 0.27 0.27 0.29 0.29 0.33 0.45 0.56 0.63 0.77 1.10 1.41 1.55 1.45 1.40 1.30 1.40 1.45 1.46 1.50 1.49 1.48 1.48 1.44 1.46 1.54 1.57 1.55 1.60 1.58 1.62 1.77 1.79
0.14 0.11 0.11 0.14 0.17 0.30 0.64 0.85 0.73 0.76 0.72 0.63 0.54 0.40 0.34 0.31 0.30 0.29 0.24 0.23 0.28 0.28 0.38 0.57 0.69 0.84 1.12 1.42 1.60 1.55 1.39 1.34 1.41 1.32 1.27 1.37 1.43 1.45 1.46 1.41 1.37 1.34 1.40 1.56 1.70 1.67 1.71 1.77 1.82
0.14 0.14 0.14 0.20 0.19 0.22 0.35 0.56 0.43 0.50 0.60 0.58 0.41 0.31 0.27 0.21 0.24 0.23 0.17 0.18 0.21 0.24 0.35 0.67 0.98 1.32 1.49 1.72 1.94 1.91 1.58 1.41 1.32 1.14 1.09 1.21 1.37 1.43 1.43 1.39 1.33 1.29 1.39 1.61 1.73 1.78 1.93 2.01 1.95

GEFSSGP_prec_meanprecacc_180.txt.gz
Total_Precipitation_Accumulation
0.03 0.09 0.28 0.55 1.03 1.48 1.23 0.62 0.43 0.30 0.30 0.41 0.40 0.30 0.32 0.42 0.59 0.92 0.42 0.28 0.13 0.05 0.04 0.12 0.16 0.13 0.14 0.16 0.17 0.19 0.17 0.17 0.16 0.14 0.12 0.12 0.12 0.12 0.12 0.14 0.18 0.20 0.21 0.23 0.25 0.23 0.22 0.20 0.20
0.04 0.14 0.36 0.74 1.40 1.73 1.06 0.46 0.33 0.28 0.35 0.42 0.34 0.27 0.31 0.29 0.25 0.21 0.22 0.30 0.13 0.05 0.04 0.06 0.11 0.12 0.11 0.13 0.15 0.18 0.17 0.18 0.18 0.16 0.14 0.14 0.16 0.18 0.20 0.20 0.20 0.22 0.24 0.21 0.21 0.20 0.18 0.16 0.17
0.07 0.16 0.42 0.78 1.08 1.16 0.59 0.27 0.23 0.25 0.38 0.41 0.33 0.29 0.32 0.35 0.32 0.24 0.17 0.17 0.12 0.06 0.05 0.06 0.08 0.10 0.10 0.11 0.14 0.15 0.17 0.17 0.19 0.18 0.15 0.17 0.20 0.24 0.26 0.26 0.24 0.26 0.24 0.22 0.22 0.20 0.19 0.17 0.18
0.10 0.22 0.43 0.62 0.71 0.60 0.34 0.21 0.21 0.26 0.37 0.33 0.29 0.38 0.42 0.45 0.28 0.22 0.19 0.14 0.11 0.08 0.07 0.08 0.10 0.10 0.09 0.11 0.12 0.14 0.17 0.19 0.19 0.16 0.17 0.18 0.24 0.26 0.26 0.24 0.25 0.25 0.22 0.22 0.21 0.20 0.19 0.19 0.20
0.13 0.29 0.51 0.60 0.52 0.35 0.26 0.22 0.23 0.24 0.23 0.31 0.35 0.53 0.55 0.48 0.31 0.37 0.37 0.23 0.11 0.10 0.11 0.12 0.14 0.12 0.12 0.12 0.13 0.15 0.16 0.18 0.19 0.17 0.18 0.20 0.25 0.25 0.24 0.23 0.23 0.23 0.21 0.22 0.23 0.23 0.20 0.22 0.24
0.14 0.27 0.39 0.43 0.31 0.21 0.23 0.22 0.20 0.21 0.26 0.36 0.46 0.48 0.58 0.49 0.41 0.59 0.54 0.39 0.21 0.16 0.18 0.20 0.21 0.19 0.17 0.16 0.15 0.16 0.19 0.19 0.21 0.22 0.21 0.22 0.24 0.26 0.25 0.25 0.26 0.24 0.22 0.22 0.24 0.24 0.24 0.26 0.29
0.13 0.20 0.26 0.23 0.18 0.17 0.18 0.17 0.18 0.20 0.33 0.42 0.48 0.58 0.74 0.77 0.60 0.59 0.66 0.64 0.40 0.38 0.47 0.40 0.28 0.24 0.25 0.24 0.23 0.22 0.24 0.26 0.26 0.26 0.24 0.26 0.26 0.27 0.28 0.30 0.30 0.29 0.27 0.28 0.25 0.24 0.27 0.30 0.33
0.06 0.11 0.12 0.10 0.09 0.12 0.11 0.14 0.17 0.20 0.28 0.44 0.55 0.71 0.99 0.92 0.76 0.74 0.80 0.93 0.67 0.56 0.57 0.53 0.40 0.35 0.27 0.24 0.26 0.28 0.30 0.31 0.29 0.28 0.28 0.29 0.28 0.29 0.34 0.34 0.41 0.41 0.43 0.46 0.43 0.37 0.35 0.40 0.44
0.04 0.10 0.08 0.05 0.05 0.08 0.07 0.10 0.14 0.19 0.27 0.35 0.57 0.76 0.79 0.72 0.89 0.94 1.09 1.28 1.23 1.00 0.87 0.75 0.50 0.40 0.38 0.32 0.29 0.37 0.38 0.37 0.37 0.40 0.39 0.50 0.64 0.63 0.75 0.66 0.74 0.70 0.73 0.74 0.74 0.69 0.67 0.69 0.58
0.03 0.06 0.06 0.03 0.03 0.05 0.05 0.08 0.14 0.30 0.46 0.71 0.96 0.94 0.73 0.73 1.04 1.23 1.40 1.64 1.68 1.52 1.33 1.08 0.78 0.62 0.55 0.46 0.48 0.56 0.56 0.66 0.70 0.86 0.91 1.15 1.38 1.32 0.97 1.04 1.25 1.30 1.30 1.24 1.26 1.39 1.24 1.09 0.95
0.02 0.02 0.02 0.03 0.03 0.03 0.04 0.07 0.10 0.22 0.66 1.17 1.41 1.32 1.13 1.00 1.24 1.59 1.90 2.19 1.97 1.69 1.52 1.39 1.17 0.95 0.75 0.76 0.75 0.83 0.97 1.26 1.17 1.10 1.23 1.59 1.49 1.23 1.08 1.21 1.50 1.77 1.76 1.70 1.79 1.95 1.61 1.69 1.89
0.01 0.01 0.01 0.01 0.02 0.02 0.03 0.05 0.14 0.24 0.64 0.92 1.16 1.26 1.29 1.29 1.37 1.59 1.91 2.18 2.38 2.26 2.02 1.80 1.64 1.42 1.35 1.24 1.12 1.02 1.07 1.20 1.21 1.33 1.25 1.57 1.70 1.58 1.52 1.66 1.75 1.95 2.17 2.53 2.41 2.52 2.40 2.32 2.17
0.00 0.01 0.01 0.01 0.01 0.02 0.03 0.08 0.17 0.28 0.55 0.61 0.70 0.85 1.15 1.39 1.71 2.00 2.16 2.50 2.62 2.70 2.48 2.33 2.18 2.10 2.05 1.87 1.66 1.33 1.36 1.32 1.36 1.55 1.53 1.64 1.90 1.99 2.08 2.05 2.00 1.89 2.22 2.64 2.86 2.57 2.85 2.86 2.47
0.00 0.00 0.00 0.01 0.02 0.03 0.04 0.09 0.19 0.34 0.49 0.55 0.63 0.82 1.10 1.44 1.72 2.14 2.43 2.83 2.83 2.86 2.97 3.05 2.92 2.80 2.77 2.54 2.35 2.07 1.86 1.91 1.86 1.87 1.99 2.13 2.32 2.47 2.52 2.38 2.31 2.09 2.10 2.39 2.61 2.61 2.84 2.73 2.58
0.00 0.01 0.04 0.04 0.04 0.06 0.12 0.21 0.37 0.50 0.56 0.75 0.84 1.06 1.24 1.56 1.90 2.01 2.19 2.45 2.75 3.02 3.46 3.72 3.75 3.65 3.60 3.46 3.12 2.75 2.54 2.54 2.66 2.70 2.71 2.63 2.72 2.93 2.81 2.59 2.29 2.17 2.23 2.36 2.35 2.37 2.47 2.34 2.25
0.01 0.03 0.11 0.11 0.07 0.09 0.16 0.43 0.56 0.60 0.72 0.93 0.98 1.21 1.50 1.60 1.94 2.07 2.09 2.28 2.83 3.30 3.87 4.17 4.32 4.52 4.39 4.31 3.94 3.46 3.18 3.04 2.99 3.04 3.04 2.91 2.93 2.83 2.76 2.44 2.10 2.15 2.26 2.27 2.25 2.11 2.20 2.23 2.29
0.02 0.06 0.12 0.19 0.11 0.12 0.19 0.49 0.62 0.64 0.85 1.01 1.17 1.20 1.36 1.58 2.01 2.27 2.37 2.51 2.95 3.59 4.28 4.67 5.13 5.40 5.27 4.97 4.45 3.99 3.83 3.59 3.36 3.31 3.19 3.02 2.80 2.64 2.69 2.37 2.25 2.16 2.19 2.08 1.93 2.15 2.27 2.29 2.32
0.03 0.05 0.12 0.23 0.15 0.14 0.26 0.48 0.69 0.78 0.93 1.11 1.17 1.16 1.30 1.59 1.80 2.12 2.39 2.78 3.14 3.69 4.46 5.06 5.58 5.75 5.45 4.91 4.48 4.30 4.12 3.77 3.48 3.14 2.86 2.59 2.45 2.27 2.38 2.17 2.10 2.17 2.22 2.06 2.06 2.25 2.26 2.05 2.15
0.03 0.05 0.14 0.22 0.14 0.16 0.29 0.46 0.68 0.85 0.99 1.06 1.25 1.25 1.44 1.69 1.84 2.21 2.54 2.97 3.40 3.92 4.63 5.21 5.57 5.50 5.27 4.90 4.51 4.21 3.73 3.40 3.10 2.76 2.52 2.28 2.02 1.92 2.14 1.97 2.11 2.08 2.00 1.83 1.80 1.89 1.89 1.67 1.93
0.05 0.08 0.18 0.21 0.14 0.15 0.30 0.50 0.78 0.87 0.85 0.89 1.12 1.23 1.30 1.49 1.78 2.10 2.60 2.89 3.21 3.69 4.18 4.58 4.53 4.20 4.06 4.00 3.88 3.61 3.62 3.46 3.27 3.04 2.78 2.36 2.14 1.97 1.81 1.90 1.81 1.79 1.85 1.65 1.55 1.70 1.71 1.49 1.74
0.06 0.08 0.14 0.20 0.22 0.23 0.33 0.66 0.91 0.93 0.84 0.80 0.84 0.95 1.05 1.18 1.40 1.72 2.26 2.56 2.71 3.09 3.38 3.44 3.32 3.11 3.12 3.15 3.07 3.11 3.33 3.38 3.32 3.15 2.88 2.58 2.38 2.21 2.05 1.89 1.73 1.69 1.57 1.55 1.51 1.57 1.60 1.53 1.48
0.09 0.06 0.07 0.10 0.19 0.42 0.47 0.85 1.11 1.21 1.14 0.93 0.83 0.93 0.98 1.05 1.10 1.38 1.72 1.90 2.14 2.30 2.45 2.50 2.55 2.54 2.52 2.54 2.46 2.36 2.41 2.56 2.77 3.00 3.05 3.01 2.79 2.49 2.20 1.99 1.78 1.56 1.41 1.53 1.29 1.36 1.55 1.63 1.40
0.06 0.05 0.06 0.09 0.15 0.30 0.42 0.66 1.08 1.34 1.48 1.14 0.91 0.83 0.77 0.89 1.09 1.23 1.30 1.44 1.58 1.58 1.73 1.81 2.09 2.37 2.43 2.41 2.47 2.36 2.12 2.09 2.14 2.28 2.42 2.43 2.42 2.28 2.00 1.86 1.76 1.51 1.31 1.30 1.31 1.48 1.46 1.44 1.34
0.06 0.10 0.16 0.24 0.37 0.60 0.57 0.62 0.97 1.19 1.32 1.06 0.85 0.82 0.67 0.66 0.83 0.99 1.14 1.20 1.24 1.21 1.37 1.58 1.89 2.24 2.43 2.48 2.43 2.34 2.25 2.21 2.08 2.04 2.03 1.91 1.94 1.93 1.80 1.67 1.62 1.46 1.32 1.31 1.27 1.36 1.41 1.45 1.48
0.08 0.15 0.48 0.82 1.15 1.18 0.68 0.67 0.90 0.91 0.87 0.88 0.74 0.68 0.70 0.61 0.61 0.61 0.75 0.86 0.85 0.88 0.98 1.23 1.46 1.69 1.89 2.03 2.03 1.93 2.04 2.16 2.03 1.88 1.76 1.65 1.55 1.50 1.51 1.57 1.59 1.44 1.37 1.40 1.50 1.47 1.40 1.43 1.51
0.08 0.12 0.36 0.60 0.77 0.89 0.72 1.06 1.15 0.84 0.73 0.62 0.51 0.48 0.53 0.44 0.40 0.37 0.43 0.53 0.63 0.66 0.69 0.82 1.10 1.29 1.48 1.61 1.73 1.82 1.98 2.11 2.07 2.19 1.95 1.75 1.52 1.40 1.45 1.60 1.63 1.52 1.42 1.36 1.54 1.51 1.52 1.58 1.56
0.09 0.08 0.13 0.21 0.35 0.60 0.86 1.08 1.02 0.82 0.81 0.61 0.43 0.37 0.37 0.32 0.28 0.28 0.33 0.37 0.41 0.46 0.53 0.60 0.76 0.98 1.20 1.39 1.56 1.63 1.61 1.64 1.77 1.94 1.91 1.75 1.67 1.51 1.58 1.62 1.72 1.74 1.74 1.69 1.72 1.62 1.66 1.83 1.82
0.10 0.09 0.10 0.16 0.29 0.46 0.77 1.12 1.18 1.01 0.90 0.72 0.55 0.37 0.30 0.30 0.28 0.27 0.28 0.30 0.31 0.33 0.45 0.57 0.64 0.80 1.12 1.44 1.60 1.50 1.47 1.37 1.50 1.57 1.61 1.67 1.64 1.63 1.65 1.63 1.66 1.71 1.75 1.74 1.80 1.78 1.83 1.98 1.98
0.14 0.11 0.11 0.14 0.17 0.30 0.65 0.86 0.73 0.76 0.72 0.63 0.56 0.40 0.35 0.32 0.31 0.30 0.27 0.28 0.32 0.29 0.38 0.57 0.70 0.86 1.15 1.46 1.64 1.61 1.45 1.41 1.49 1.42 1.40 1.52 1.57 1.57 1.60 1.59 1.55 1.51 1.56 1.73 1.87 1.85 1.93 2.00 2.03
0.14 0.14 0.14 0.20 0.19 0.22 0.36 0.57 0.44 0.51 0.61 0.59 0.43 0.32 0.27 0.22 0.25 0.24 0.20 0.24 0.24 0.24 0.36 0.68 0.99 1.34 1.51 1.75 1.97 1.96 1.66 1.49 1.40 1.23 1.20 1.34 1.50 1.54 1.55 1.54 1.50 1.45 1.54 1.76 1.88 1.94 2.13 2.20 2.12

GEFSSGP_prec_meanprecacc_186.txt.gz
Total_Precipitation_Accumulation
0.04 0.10 0.31 0.58 1.06 1.52 1.26 0.64 0.47 0.32 0.30 0.42 0.41 0.31 0.33 0.43 0.61 0.94 0.45 0.29 0.13 0.05 0.05 0.13 0.17 0.14 0.15 0.17 0.18 0.19 0.18 0.18 0.17 0.15 0.13 0.13 0.14 0.14 0.14 0.16 0.21 0.22 0.25 0.26 0.28 0.27 0.24 0.22 0.23
0.06 0.17 0.38 0.76 1.44 1.75 1.07 0.48 0.35 0.28 0.35 0.43 0.34 0.27 0.31 0.29 0.25 0.22 0.25 0.31 0.13 0.05 0.04 0.06 0.12 0.13 0.12 0.14 0.15 0.18 0.18 0.18 0.19 0.17 0.15 0.15 0.17 0.20 0.22 0.22 0.23 0.25 0.27 0.24 0.24 0.23 0.19 0.18 0.19
0.10 0.19 0.46 0.83 1.10 1.17 0.60 0.28 0.23 0.25 0.38 0.41 0.33 0.29 0.32 0.35 0.32 0.26 0.18 0.18 0.12 0.06 0.05 0.06 0.09 0.10 0.10 0.11 0.14 0.16 0.17 0.18 0.20 0.18 0.16 0.18 0.21 0.26 0.27 0.28 0.27 0.28 0.26 0.24 0.25 0.22 0.20 0.18 0.19
0.13 0.26 0.46 0.65 0.73 0.60 0.34 0.23 0.22 0.26 0.37 0.33 0.29 0.38 0.42 0.46 0.30 0.24 0.19 0.14 0.11 0.09 0.07 0.08 0.11 0.10 0.09 0.11 0.12 0.14 0.18 0.20 0.20 0.17 0.18 0.19 0.25 0.27 0.27 0.26 0.27 0.27 0.24 0.24 0.23 0.21 0.20 0.21 0.22
0.16 0.35 0.54 0.63 0.54 0.35 0.26 0.23 0.24 0.24 0.23 0.31 0.35 0.53 0.57 0.51 0.32 0.38 0.38 0.23 0.11 0.10 0.12 0.12 0.14 0.12 0.12 0.12 0.13 0.15 0.16 0.18 0.19 0.18 0.19 0.21 0.26 0.26 0.25 0.24 0.26 0.24 0.22 0.23 0.24 0.23 0.21 0.24 0.26
0.19 0.32 0.41 0.45 0.34 0.22 0.24 0.23 0.20 0.21 0.26 0.36 0.46 0.48 0.60 0.52 0.44 0.62 0.55 0.39 0.22 0.16 0.18 0.20 0.22 0.20 0.18 0.16 0.15 0.16 0.19 0.20 0.21 0.23 0.22 0.22 0.25 0.27 0.26 0.26 0.27 0.25 0.23 0.23 0.24 0.25 0.24 0.27 0.31
0.17 0.22 0.27 0.25 0.21 0.18 0.18 0.18 0.18 0.20 0.34 0.45 0.50 0.59 0.76 0.82 0.62 0.61 0.68 0.65 0.42 0.39 0.48 0.40 0.28 0.24 0.25 0.24 0.23 0.22 0.24 0.26 0.26 0.27 0.25 0.26 0.27 0.28 0.29 0.30 0.31 0.30 0.28 0.28 0.26 0.24 0.28 0.31 0.34
0.09 0.12 0.13 0.12 0.12 0.13 0.11 0.14 0.18 0.21 0.29 0.46 0.57 0.71 1.00 0.95 0.77 0.75 0.82 0.96 0.72 0.58 0.59 0.53 0.40 0.35 0.27 0.24 0.26 0.28 0.30 0.31 0.29 0.28 0.29 0.29 0.29 0.31 0.35 0.35 0.41 0.42 0.43 0.46 0.44 0.37 0.36 0.40 0.44
0.05 0.11 0.10 0.07 0.06 0.08 0.08 0.10 0.16 0.22 0.29 0.36 0.58 0.77 0.79 0.72 0.89 0.94 1.11 1.34 1.31 1.04 0.91 0.76 0.50 0.41 0.38 0.32 0.29 0.37 0.38 0.37 0.38 0.41 0.40 0.50 0.65 0.64 0.75 0.66 0.75 0.71 0.74 0.74 0.75 0.70 0.67 0.70 0.59
0.04 0.07 0.06 0.04 0.04 0.06 0.06 0.08 0.15 0.31 0.47 0.73 0.97 0.94 0.73 0.73 1.04 1.23 1.41 1.67 1.72 1.55 1.36 1.10 0.80 0.63 0.56 0.47 0.49 0.57 0.56 0.67 0.71 0.87 0.91 1.16 1.39 1.33 0.98 1.05 1.26 1.31 1.31 1.25 1.27 1.39 1.25 1.10 0.97
0.02 0.03 0.02 0.04 0.03 0.04 0.04 0.07 0.10 0.23 0.66 1.18 1.41 1.32 1.13 1.00 1.24 1.60 1.90 2.20 1.99 1.71 1.53 1.40 1.18 0.96 0.76 0.78 0.77 0.84 0.97 1.27 1.18 1.11 1.24 1.60 1.50 1.24 1.10 1.22 1.51 1.78 1.77 1.72 1.80 1.96 1.62 1.71 1.92
0.01 0.01 0.01 0.02 0.02 0.02 0.03 0.05 0.14 0.25 0.65 0.92 1.17 1.26 1.29 1.30 1.37 1.59 1.91 2.18 2.38 2.27 2.03 1.80 1.64 1.43 1.36 1.25 1.14 1.04 1.08 1.21 1.22 1.34 1.27 1.59 1.72 1.60 1.54 1.68 1.77 1.97 2.18 2.54 2.42 2.55 2.43 2.35 2.20
0.00 0.01 0.01 0.01 0.02 0.02 0.03 0.08 0.18 0.28 0.55 0.61 0.71 0.86 1.15 1.39 1.71 2.00 2.16 2.50 2.62 2.71 2.49 2.34 2.19 2.10 2.06 1.88 1.67 1.34 1.38 1.34 1.37 1.57 1.56 1.66 1.91 2.00 2.10 2.07 2.03 1.91 2.24 2.65 2.88 2.59 2.87 2.89 2.50
0.00 0.00 0.01 0.01 0.02 0.03 0.04 0.10 0.20 0.34 0.49 0.55 0.64 0.84 1.11 1.44 1.72 2.14 2.44 2.84 2.83 2.86 2.98 3.06 2.92 2.80 2.78 2.56 2.36 2.08 1.87 1.93 1.88 1.89 2.01 2.15 2.33 2.47 2.53 2.40 2.33 2.12 2.13 2.42 2.63 2.63 2.86 2.75 2.60
0.01 0.01 0.04 0.05 0.05 0.06 0.13 0.23 0.38 0.51 0.56 0.75 0.84 1.09 1.26 1.56 1.90 2.01 2.20 2.45 2.76 3.02 3.46 3.72 3.76 3.65 3.61 3.48 3.14 2.75 2.56 2.56 2.68 2.72 2.73 2.65 2.73 2.94 2.82 2.61 2.31 2.21 2.26 2.40 2.38 2.40 2.50 2.36 2.28
0.01 0.03 0.11 0.11 0.08 0.09 0.16 0.45 0.58 0.61 0.72 0.93 0.98 1.23 1.52 1.60 1.94 2.07 2.10 2.29 2.85 3.31 3.87 4.18 4.32 4.53 4.40 4.32 3.95 3.47 3.21 3.07 3.02 3.07 3.06 2.93 2.96 2.85 2.78 2.47 2.13 2.19 2.31 2.31 2.29 2.14 2.23 2.25 2.31
0.03 0.06 0.13 0.20 0.12 0.13 0.20 0.50 0.64 0.66 0.85 1.01 1.17 1.21 1.37 1.58 2.01 2.29 2.40 2.55 3.04 3.62 4.29 4.68 5.14 5.41 5.28 4.98 4.46 4.00 3.85 3.61 3.39 3.34 3.24 3.05 2.83 2.67 2.72 2.41 2.29 2.21 2.25 2.15 1.98 2.20 2.31 2.32 2.35
0.04 0.06 0.13 0.23 0.16 0.15 0.26 0.49 0.70 0.79 0.93 1.11 1.17 1.16 1.30 1.59 1.81 2.16 2.43 2.83 3.27 3.71 4.47 5.07 5.59 5.75 5.46 4.92 4.49 4.31 4.14 3.79 3.51 3.19 2.91 2.64 2.49 2.31 2.43 2.23 2.16 2.26 2.30 2.13 2.13 2.31 2.31 2.09 2.18
0.03 0.06 0.15 0.22 0.15 0.17 0.30 0.47 0.70 0.87 1.00 1.07 1.26 1.26 1.44 1.70 1.84 2.22 2.55 2.99 3.43 3.94 4.65 5.23 5.58 5.51 5.28 4.92 4.53 4.22 3.74 3.42 3.13 2.81 2.57 2.34 2.08 1.98 2.20 2.05 2.25 2.18 2.05 1.89 1.86 1.95 1.95 1.72 1.98
0.05 0.09 0.19 0.22 0.14 0.15 0.31 0.51 0.79 0.88 0.87 0.91 1.13 1.24 1.31 1.50 1.78 2.11 2.61 2.91 3.23 3.71 4.20 4.60 4.54 4.21 4.07 4.01 3.89 3.62 3.64 3.50 3.32 3.09 2.84 2.45 2.24 2.05 1.90 2.00 1.88 1.84 1.90 1.70 1.59 1.75 1.75 1.53 1.81
0.06 0.08 0.15 0.20 0.22 0.24 0.34 0.67 0.92 0.94 0.86 0.82 0.85 0.97 1.09 1.22 1.41 1.73 2.27 2.58 2.74 3.12 3.42 3.47 3.35 3.13 3.13 3.17 3.09 3.14 3.39 3.44 3.38 3.21 2.95 2.66 2.49 2.33 2.16 1.99 1.80 1.75 1.63 1.61 1.57 1.63 1.65 1.56 1.53
0.09 0.06 0.07 0.10 0.20 0.42 0.48 0.85 1.13 1.22 1.15 0.94 0.85 0.95 1.03 1.12 1.16 1.44 1.77 1.96 2.18 2.34 2.49 2.53 2.58 2.57 2.54 2.56 2.49 2.40 2.47 2.62 2.83 3.06 3.10 3.08 2.86 2.59 2.30 2.10 1.86 1.63 1.48 1.59 1.34 1.42 1.62 1.68 1.44
0.06 0.05 0.06 0.09 0.15 0.30 0.42 0.67 1.09 1.35 1.49 1.16 0.93 0.86 0.81 0.93 1.17 1.39 1.47 1.56 1.64 1.63 1.77 1.86 2.13 2.40 2.46 2.45 2.52 2.42 2.19 2.16 2.20 2.33 2.47 2.49 2.50 2.37 2.10 1.97 1.86 1.61 1.41 1.39 1.37 1.54 1.52 1.50 1.40
0.06 0.10 0.16 0.24 0.37 0.60 0.58 0.63 0.99 1.22 1.35 1.09 0.90 0.85 0.72 0.72 0.90 1.12 1.34 1.38 1.33 1.27 1.43 1.65 1.94 2.30 2.49 2.53 2.49 2.41 2.33 2.28 2.16 2.11 2.12 2.01 2.03 2.01 1.90 1.78 1.75 1.58 1.42 1.40 1.36 1.44 1.49 1.53 1.57
0.08 0.15 0.48 0.82 1.15 1.19 0.69 0.68 0.92 0.96 0.90 0.91 0.76 0.70 0.74 0.67 0.66 0.67 0.83 1.04 1.03 1.00 1.12 1.38 1.55 1.79 1.97 2.09 2.10 2.01 2.12 2.24 2.10 1.95 1.83 1.73 1.61 1.56 1.60 1.68 1.71 1.56 1.47 1.49 1.58 1.56 1.48 1.54 1.61
0.08 0.12 0.36 0.60 0.77 0.89 0.73 1.08 1.21 0.89 0.75 0.65 0.53 0.50 0.56 0.48 0.45 0.43 0.48 0.61 0.82 0.84 0.87 0.97 1.21 1.37 1.54 1.66 1.77 1.87 2.03 2.15 2.10 2.23 2.01 1.83 1.57 1.46 1.51 1.68 1.72 1.61 1.52 1.46 1.65 1.60 1.59 1.66 1.64
0.09 0.08 0.13 0.21 0.35 0.60 0.86 1.10 1.08 0.87 0.83 0.63 0.45 0.39 0.40 0.36 0.34 0.33 0.40 0.59 0.60 0.59 0.62 0.73 0.94 1.06 1.24 1.43 1.61 1.68 1.65 1.67 1.80 1.97 1.96 1.81 1.74 1.59 1.65 1.70 1.80 1.85 1.87 1.83 1.86 1.74 1.76 1.92 1.92
0.10 0.09 0.10 0.16 0.29 0.47 0.77 1.13 1.20 1.05 0.93 0.75 0.63 0.46 0.36 0.35 0.34 0.32 0.35 0.43 0.43 0.41 0.53 0.73 0.86 0.89 1.17 1.48 1.64 1.54 1.51 1.42 1.56 1.63 1.67 1.73 1.71 1.70 1.73 1.71 1.74 1.84 1.88 1.88 1.96 1.93 1.99 2.15 2.13
0.14 0.11 0.11 0.14 0.17 0.31 0.66 0.87 0.77 0.82 0.76 0.68 0.61 0.51 0.45 0.39 0.38 0.37 0.37 0.38 0.45 0.40 0.47 0.63 0.78 0.93 1.19 1.50 1.68 1.64 1.49 1.46 1.56 1.49 1.47 1.60 1.66 1.66 1.70 1.68 1.63 1.60 1.69 1.85 2.01 2.00 2.11 2.21 2.24
0.14 0.14 0.14 0.20 0.19 0.22 0.36 0.58 0.45 0.55 0.66 0.62 0.47 0.38 0.37 0.30 0.31 0.29 0.26 0.30 0.30 0.29 0.40 0.72 1.06 1.40 1.54 1.77 1.99 1.98 1.68 1.52 1.44 1.29 1.29 1.48 1.66 1.69 1.66 1.64 1.59 1.53 1.61 1.84 1.99 2.09 2.31 2.40 2.30